Tracking 20712 objects as of 29-May-2020
HD Live streaming from Space Station
objects crossing your sky now

IRIDIUM 33 DEB

Track IRIDIUM 33 DEB now!
10-day predictions


NORAD ID: 35628
Int'l Code: 1997-051RA
Perigee: 738.0 km
Apogee: 761.0 km
Inclination: 86.4 °
Period: 99.7 minutes
Semi major axis: 7120 km
RCS: 0.0194 m2 (small)
Launch date: September 14, 1997
Source: United States (US)
Launch site: TYURATAM MISSILE AND SPACE COMPLEX (TTMTR)

Note: This is SATELLITE DEBRIS
aabbcc
Your satellite tracking list
Your tracking list is empty




NASA's NSSDC Master Catalog

Two Line Element Set (TLE):
1 35628U 97051RA  20149.81580252 +.00000581 +00000-0 +16097-3 0  9993
2 35628 086.3660 166.9857 0016145 268.6932 091.2420 14.44893171570912
Source of the keplerian elements: AFSPC